Temp
30 29 29 28 28 27 27 28 28 28 28 28 27 27 27 27 27 27 27 27 27 27 27 27 27 27 26 26 26 25 25 24 22 20 20 19 19 19 18 18 18 17 16
31 31 30 30 29 29 28 28 28 28 28 27 27 27 26 26 26 26 26 27 27 26 27 27 27 27 26 26 25 23 24 23 22 20 20 19 19 18 18 18 18 18 16
31 30 29 29 28 27 27 27 27 26 26 27 27 27 27 26 26 26 26 26 26 26 26 26 27 27 27 26 25 24 22 23 22 21 21 20 19 19 18 18 18 17 17
29 27 27 25 25 25 25 25 25 26 26 26 27 27 27 27 27 26 26 26 26 26 26 26 26 27 26 26 25 24 23 23 23 22 22 21 21 20 19 19 18 18 17
25 24 23 23 24 24 24 24 25 25 25 25 26 26 26 27 26 26 26 27 27 27 26 26 26 27 27 27 26 24 23 23 23 23 23 22 21 20 20 21 19 18 18
23 23 23 23 24 24 24 24 24 24 25 25 25 25 26 26 26 25 25 25 24 25 25 26 26 27 27 26 26 26 23 23 23 24 24 23 22 21 21 21 19 18 18
22 21 21 21 21 22 24 24 24 24 24 24 24 24 24 25 25 25 25 25 24 24 24 25 25 26 26 25 25 23 23 23 23 23 23 23 22 22 22 22 21 20 20
22 22 22 21 21 22 22 22 23 23 23 23 23 23 24 24 24 24 24 23 23 23 24 25 25 25 25 24 24 23 22 22 22 22 22 22 22 22 21 21 20 20 20
23 22 21 21 21 20 20 21 21 21 21 22 22 23 23 24 23 23 23 22 22 23 23 24 25 25 25 25 23 23 21 21 21 21 21 22 22 21 20 20 19 19 20
23 22 21 20 20 20 19 19 20 20 20 21 21 22 23 23 23 22 22 22 22 23 22 24 24 24 25 24 23 21 21 21 21 20 21 21 21 21 20 20 20 20 21
21 20 20 20 20 20 20 20 20 19 19 20 20 20 20 21 21 23 23 22 22 22 22 22 23 22 22 23 23 22 21 21 21 20 20 20 20 20 20 20 20 20 21
20 19 19 19 19 19 19 19 19 19 19 19 20 20 21 22 22 23 24 24 23 21 21 20 21 20 20 20 21 21 21 21 22 20 19 19 19 19 19 19 20 20 21
19 19 18 18 18 18 18 18 18 19 20 20 21 22 23 24 24 25 26 25 24 20 20 19 19 19 19 20 20 20 20 21 21 20 20 20 20 20 20 20 20 20 20
18 18 18 18 18 18 19 19 20 20 21 21 22 22 22 22 22 23 21 20 20 20 20 20 20 20 20 20 19 19 19 20 20 21 21 22 21 21 20 20 20 20 19
18 18 18 19 19 19 19 19 18 18 18 18 17 19 21 21 21 21 21 20 19 20 20 19 20 18 17 18 18 17 18 18 19 20 22 23 22 21 21 20 20 20 20
17 17 17 17 18 18 18 18 17 17 17 18 18 18 18 19 20 20 20 20 19 18 18 19 20 18 17 17 17 17 17 18 19 20 21 22 21 21 21 20 20 20 20
15 15 16 16 17 17 17 17 17 17 17 17 18 18 19 19 19 19 19 20 19 18 16 17 19 20 20 18 16 16 17 17 18 19 20 21 22 21 21 20 20 21 20
13 13 14 15 15 16 16 16 16 16 17 17 17 18 19 18 18 19 18 15 14 17 16 17 19 19 20 20 18 17 17 17 17 19 20 21 22 22 22 22 20 21 21
12 12 13 13 13 13 13 14 16 17 17 17 17 17 17 17 18 18 18 15 16 18 19 18 18 19 20 20 19 17 17 17 17 18 19 21 22 23 22 22 22 22 21
12 11 11 11 11 12 12 13 15 16 15 15 16 16 16 17 16 16 16 15 14 16 17 19 20 21 20 20 20 18 17 17 17 17 18 19 21 23 23 22 23 22 22
12 11 11 11 12 12 12 13 13 14 14 15 15 15 15 15 15 15 16 17 17 17 16 15 20 20 20 21 20 20 18 18 18 18 18 19 21 22 23 23 23 22 22
12 11 11 11 12 12 12 13 13 13 13 13 13 13 13 13 14 15 15 16 17 17 18 19 17 19 18 20 19 19 19 18 17 17 18 18 18 20 22 23 23 22 22
13 11 11 11 11 12 12 12 12 13 13 13 13 13 13 13 13 14 14 15 15 16 17 17 17 16 17 18 18 17 17 18 18 19 18 17 18 20 22 22 23 22 21
13 12 11 11 11 11 11 11 11 11 11 12 12 11 12 12 12 13 14 14 15 15 15 16 16 14 14 15 15 15 16 16 17 18 18 19 19 20 21 22 22 22 21
13 12 10 10 11 12 12 12 10 10 10 10 10 10 10 10 11 12 13 14 14 14 13 12 13 13 12 12 12 13 14 15 16 17 18 19 20 20 20 21 21 21 20
13 12 11 11 12 12 12 11 9 9 9 9 9 9 9 10 10 11 12 12 12 12 12 12 12 11 11 12 13 14 15 15 16 16 17 19 19 20 20 21 21 20 19
Height
781 785 789 792 795 797 799 801 802 803 804 804 804 803 802 801 801 801 801 802 802 802 802 801 800 798 797 797 799 803 804 802 802 804 803 802 802 804 805 804 804 803 802
778 782 785 789 792 794 796 798 800 800 801 801 801 800 799 798 798 798 798 798 799 799 799 797 796 794 793 795 799 791 800 796 799 801 802 801 801 803 803 804 804 804 802
777 782 784 786 787 790 792 794 795 797 797 797 796 796 796 795 795 794 794 794 794 794 794 793 792 790 789 792 794 796 792 800 797 796 796 799 799 801 802 802 803 803 802
779 782 785 788 790 791 792 792 792 793 794 794 795 794 793 792 791 790 789 789 789 790 790 790 788 786 786 788 790 790 789 794 794 794 794 794 795 799 800 800 802 802 801
786 791 795 793 794 796 796 792 789 791 790 790 790 790 790 791 791 788 787 786 785 784 784 784 784 783 783 783 787 787 788 790 791 790 790 789 793 796 796 796 798 800 800
795 800 797 798 798 802 802 795 794 791 791 789 789 789 787 788 787 787 785 784 783 781 780 779 779 777 777 777 778 780 783 784 786 786 785 784 786 791 792 794 795 797 800
798 799 801 799 805 792 806 797 795 792 793 792 789 788 787 786 784 783 783 781 780 778 776 775 774 773 772 772 773 775 774 776 778 781 781 781 782 786 789 791 792 793 794
798 801 803 797 799 789 801 796 794 796 793 792 789 787 784 781 781 779 778 777 775 774 772 772 769 767 766 768 768 768 769 771 773 776 778 780 780 783 786 788 790 792 793
800 802 802 799 800 803 802 794 793 793 788 787 786 783 781 776 776 776 774 771 770 768 768 767 764 762 760 762 762 764 765 767 768 772 774 776 778 781 784 786 788 790 790
798 799 801 802 801 797 792 790 789 787 784 783 780 778 776 772 771 769 768 765 763 762 762 760 758 755 753 754 757 759 761 763 763 767 770 773 775 779 782 783 785 786 786
795 794 793 792 791 790 788 786 784 783 782 779 776 773 770 767 763 760 759 757 757 757 756 754 754 751 751 751 751 752 752 758 760 762 766 769 772 775 778 780 781 782 782
794 792 791 789 788 786 784 783 782 780 777 774 771 767 763 760 757 754 751 750 750 750 749 749 749 748 747 745 747 747 750 753 755 758 761 764 768 770 773 776 778 779 780
793 792 790 789 787 785 783 780 778 775 772 767 763 759 755 753 750 747 744 742 742 745 745 745 745 744 742 741 740 742 747 749 749 754 757 758 761 765 768 772 775 777 778
789 788 787 784 781 778 776 774 770 767 764 760 756 752 750 748 747 744 741 741 744 743 743 743 742 740 738 738 738 738 741 743 745 746 749 753 756 759 763 767 770 773 775
785 783 780 777 774 772 770 768 766 764 762 759 757 753 749 746 745 743 740 742 744 743 743 741 738 737 735 734 734 734 735 738 740 742 744 746 748 752 757 761 765 767 771
783 780 778 775 771 768 764 761 760 758 755 752 749 748 745 741 739 736 733 732 733 733 734 734 731 730 730 729 729 729 729 730 731 735 737 739 740 745 750 755 759 761 765
781 778 775 772 768 764 761 758 753 750 748 745 742 739 738 735 732 728 728 727 726 726 725 725 724 723 722 722 722 722 722 723 726 727 729 731 732 737 743 748 752 755 759
779 777 774 770 766 761 758 755 751 747 742 739 736 734 731 729 727 723 720 718 721 718 717 716 715 715 714 713 714 714 714 715 717 720 721 724 727 729 734 739 745 748 752
777 774 771 767 763 759 755 751 747 741 738 735 733 729 726 724 720 718 714 710 710 710 710 708 706 706 705 704 704 705 706 707 708 711 713 715 718 720 725 730 736 741 746
773 770 766 762 758 754 751 747 743 738 735 732 729 726 723 720 717 714 711 707 707 707 708 704 701 699 698 697 697 698 699 700 702 705 708 709 713 712 716 722 727 733 738
768 765 761 756 752 750 747 744 740 735 732 728 724 721 720 717 712 708 704 701 700 701 702 700 696 693 693 689 689 690 690 691 697 701 707 704 708 707 710 716 720 725 731
764 760 756 753 747 744 741 738 735 731 727 724 719 715 712 709 704 700 695 692 692 692 689 688 687 685 684 684 684 687 686 686 689 693 695 696 697 702 703 710 714 719 725
759 757 753 749 745 740 737 734 731 727 724 720 715 711 706 702 697 693 689 685 684 681 683 682 679 678 681 680 680 680 681 680 679 681 684 685 690 691 696 704 708 714 719
756 753 750 745 742 737 734 732 729 725 721 716 711 707 702 697 692 687 684 680 677 675 676 674 672 678 679 678 675 675 674 672 672 672 675 677 680 684 691 695 700 708 714
753 750 747 742 738 734 731 729 727 722 717 712 708 703 698 693 688 683 678 674 671 669 670 672 672 672 671 668 666 664 664 665 667 668 669 670 673 678 682 689 695 702 709
749 746 743 738 734 731 729 727 723 719 714 709 705 700 694 689 684 679 676 673 671 668 666 664 663 662 659 656 654 653 653 655 657 661 664 664 668 673 679 684 690 697 704
Wind_Speed
21 21 19 19 16 16 14 12 13 14 15 16 15 15 16 18 18 17 18 18 21 21 16 15 17 14 17 14 8 6 6 9 0 3 6 4 2 2 3 3 3 2 5
17 13 19 17 14 15 15 12 11 10 11 13 15 17 17 18 18 18 18 17 18 17 15 16 18 17 16 13 10 8 6 2 5 8 9 8 6 2 3 0 5 4 5
12 7 3 5 4 4 3 4 6 9 11 12 13 15 16 16 17 17 17 17 18 18 18 19 20 20 19 13 9 4 7 9 9 10 12 13 11 6 6 6 3 2 1
10 12 11 11 9 5 5 4 2 4 7 10 13 14 14 15 16 17 17 16 16 16 17 20 21 22 20 18 10 12 17 12 13 13 15 16 10 13 11 14 9 6 4
23 22 22 17 16 13 9 8 5 5 5 6 6 7 10 12 8 7 9 10 12 14 16 18 20 23 23 21 13 15 14 15 15 14 11 14 13 12 12 12 16 12 5
20 16 14 15 16 17 14 11 10 9 8 7 7 8 9 10 15 16 14 13 12 14 17 19 18 20 24 17 19 17 18 17 16 12 14 18 19 18 16 11 16 10 4
12 12 10 13 13 16 23 13 13 13 12 11 8 9 11 12 14 17 19 20 20 17 18 21 19 19 17 19 16 18 19 17 18 16 10 6 19 16 13 11 3 7 8
8 6 1 5 4 3 17 15 15 16 16 17 17 16 17 15 16 18 22 21 17 18 17 20 21 20 17 18 18 17 20 20 19 18 11 8 11 15 13 11 7 6 6
3 4 6 8 6 9 13 14 19 21 21 20 20 22 23 18 18 24 23 19 20 18 16 19 19 22 20 20 20 20 19 16 15 19 16 12 12 16 14 13 12 12 11
5 6 5 7 9 11 15 19 20 21 22 23 22 23 28 29 29 23 27 27 21 18 18 17 15 20 15 20 24 24 21 20 21 19 17 13 17 18 18 15 15 15 10
11 13 14 15 16 18 21 17 18 22 25 28 28 29 29 29 31 30 27 27 24 18 14 14 16 17 18 20 26 27 29 22 24 20 18 16 18 20 21 20 17 14 7
13 15 16 17 18 20 22 23 23 23 25 26 28 28 27 28 29 30 30 30 28 22 15 13 12 17 17 19 28 31 27 22 26 24 21 20 19 19 21 21 19 12 6
12 14 16 18 19 21 22 24 24 24 24 23 23 23 22 22 23 24 23 25 30 16 8 6 11 9 12 16 19 33 25 21 24 23 21 22 25 25 24 22 20 13 10
14 15 16 18 21 23 22 22 22 22 22 21 20 19 19 21 23 19 11 10 7 8 5 5 9 13 11 14 17 24 26 24 25 25 24 24 26 25 29 27 23 19 14
16 18 20 19 19 22 22 22 24 27 28 27 24 27 25 25 28 31 35 31 21 19 21 16 12 11 10 15 18 24 28 26 26 26 25 23 28 26 25 30 24 24 17
17 19 21 23 22 23 22 23 23 27 31 32 32 31 33 29 37 37 38 37 31 22 15 14 15 13 13 16 20 21 22 29 28 27 28 22 28 26 26 27 27 24 20
19 21 23 25 25 25 21 23 24 25 26 28 30 27 28 30 30 32 39 34 31 28 18 16 17 17 17 20 21 23 25 28 29 31 28 26 25 28 31 27 26 24 22
19 22 24 23 24 23 23 22 23 23 23 23 26 28 25 26 28 28 29 28 27 25 26 22 21 21 23 24 22 24 25 28 29 31 30 27 25 29 28 25 28 25 23
18 19 21 21 23 24 27 26 25 23 22 23 25 24 26 30 26 25 23 20 20 23 24 25 26 26 26 25 24 25 26 28 30 30 30 27 25 28 28 29 27 28 27
18 22 25 24 22 21 22 21 22 22 20 20 21 22 24 26 25 25 22 22 19 24 28 28 26 21 27 26 25 23 25 28 28 28 32 30 31 30 29 28 30 28 23
18 21 23 24 20 19 19 21 22 21 23 24 23 24 26 28 27 27 29 27 24 28 18 37 23 19 25 26 26 25 27 29 25 28 30 33 32 23 29 24 27 26 26
19 20 19 21 20 19 20 21 22 23 23 23 25 27 28 27 26 27 26 25 24 24 25 22 31 22 21 19 16 18 21 25 25 28 37 41 37 33 29 25 24 23 29
17 18 20 20 20 19 18 18 19 19 20 21 22 24 26 25 25 26 25 27 28 25 25 20 13 18 15 17 21 21 22 21 24 28 37 27 34 32 27 30 24 21 26
16 18 19 18 19 19 15 18 20 22 22 21 22 24 25 26 27 27 27 27 26 22 12 18 23 22 18 21 22 25 28 27 25 29 34 35 36 35 31 28 28 25 21
17 17 20 20 22 16 15 16 19 20 20 21 22 22 25 25 27 25 24 20 15 15 11 11 18 24 26 27 29 30 30 28 28 28 31 35 37 36 30 27 29 26 24
15 14 17 20 17 21 16 17 18 20 21 21 21 23 23 23 23 21 16 15 15 17 19 21 21 21 23 25 26 27 28 29 31 33 34 34 35 35 32 31 31 26 26
Wind_Direction
194 199 207 207 217 222 233 248 258 266 274 280 282 279 276 275 277 277 276 278 282 289 280 270 275 271 282 277 308 359 316 292 94 147 193 197 209 250 45 352 1 340 349
191 208 201 204 209 218 224 233 249 262 270 274 274 273 272 272 274 275 276 275 280 286 290 279 269 269 262 272 288 236 228 275 173 174 200 200 187 181 154 277 101 342 342
139 154 127 142 159 206 225 235 267 273 275 271 268 271 270 270 272 273 274 275 273 273 276 276 275 273 268 255 260 181 303 244 211 189 192 198 173 187 179 189 183 217 213
109 104 99 82 97 111 164 139 179 247 267 279 279 271 269 271 273 273 267 265 274 280 280 277 273 274 274 271 250 235 228 229 224 219 202 166 177 204 218 197 191 194 184
70 60 59 55 51 38 42 53 48 38 8 351 342 338 315 287 322 339 280 280 286 290 283 275 274 275 268 261 248 238 227 223 235 214 201 168 191 180 222 232 186 193 186
65 59 58 53 38 16 354 8 358 16 359 0 353 336 328 331 328 336 332 326 312 304 296 289 281 276 277 263 250 242 213 212 229 227 223 186 200 194 214 196 177 173 176
67 58 36 31 23 22 319 340 334 343 330 321 317 318 311 303 305 310 316 319 314 301 289 288 285 278 271 252 251 220 216 219 222 241 256 248 171 184 204 194 213 173 197
88 83 308 86 259 260 294 321 327 319 314 310 305 301 301 288 296 297 306 306 303 299 288 284 278 276 266 247 241 231 225 224 226 231 241 238 190 186 194 193 177 150 156
359 35 326 339 320 283 288 307 303 303 302 296 294 296 294 288 287 295 297 294 296 289 290 289 288 281 269 241 226 229 224 217 226 224 221 211 200 194 189 177 185 185 196
341 340 319 294 288 301 307 302 300 298 294 292 292 288 286 288 291 285 289 288 285 287 294 291 291 290 291 237 220 218 209 208 205 205 216 204 201 196 196 200 198 207 217
333 329 326 325 319 311 310 310 310 303 295 291 287 284 285 285 287 290 288 279 270 270 279 288 285 285 284 258 236 210 213 203 202 196 195 188 190 197 207 212 213 233 215
323 320 317 315 311 306 305 301 295 291 288 284 282 281 278 278 280 281 281 274 270 250 270 285 278 277 284 266 238 218 216 206 202 186 185 195 197 202 212 212 212 220 245
312 305 303 302 298 294 289 287 285 282 278 281 281 283 287 289 288 290 286 270 259 244 275 272 284 321 288 281 259 222 208 211 188 188 198 203 200 203 205 205 209 214 222
313 310 309 302 294 289 284 281 279 280 281 284 286 291 306 324 324 315 41 9 264 254 266 282 287 303 300 276 264 226 223 223 206 200 205 212 205 198 196 197 196 198 201
312 307 301 301 310 312 304 305 308 307 305 311 321 317 296 292 293 293 294 304 297 291 293 296 267 276 276 276 264 243 229 220 219 222 218 222 193 196 191 189 192 190 198
319 313 311 310 309 310 311 308 300 296 302 306 307 306 303 304 285 283 287 291 294 294 284 273 267 249 254 258 256 240 230 223 218 223 226 234 193 191 184 188 189 188 198
319 314 314 312 306 302 305 304 302 302 303 301 301 303 297 303 312 297 278 275 279 290 282 269 262 257 245 246 243 239 235 232 223 224 225 233 199 187 185 191 190 191 202
316 308 301 301 306 304 305 300 301 300 299 300 303 305 302 313 311 308 307 279 270 264 261 252 247 244 248 242 237 236 232 226 223 221 224 224 216 188 189 191 191 194 201
309 304 302 302 300 300 299 297 293 287 289 296 298 301 307 308 306 304 298 281 249 246 252 242 239 239 241 246 233 233 234 222 219 218 225 224 222 195 194 197 191 190 196
301 305 303 293 290 294 297 289 299 306 306 299 297 297 298 302 303 297 285 279 261 263 276 266 262 251 236 241 246 230 228 228 223 222 222 225 226 202 205 194 192 190 188
308 305 302 295 287 287 287 291 288 291 293 297 299 298 300 299 290 287 284 276 265 256 272 281 266 276 281 245 244 245 223 226 225 230 245 227 226 221 205 199 187 191 193
319 310 310 317 294 293 298 302 299 297 293 295 295 298 299 295 286 284 283 283 283 273 251 266 271 254 276 294 293 272 263 231 223 214 225 223 231 224 202 210 187 195 194
321 322 318 315 312 308 305 308 312 313 308 306 306 305 303 297 294 294 292 291 294 286 289 289 281 261 267 264 270 278 274 264 245 239 221 213 209 208 204 197 193 181 187
328 326 318 314 313 318 323 324 316 313 308 307 307 304 301 298 294 290 292 290 292 279 274 277 284 280 277 275 271 267 269 264 258 248 232 221 214 207 203 192 190 193 192
323 320 315 317 304 304 314 321 322 319 316 312 310 311 311 307 305 301 299 290 289 285 282 279 285 286 286 282 275 272 265 263 259 250 239 227 217 211 201 200 184 185 194
324 317 320 327 323 337 334 336 324 320 319 318 315 319 320 321 319 315 308 303 290 294 294 295 294 294 294 290 279 272 266 257 261 248 237 227 217 204 198 193 184 175 173